datetime,"minimum soil temperature, 8 in depth"
2000-04-19,46.22
2000-04-20,46.76
2000-04-21,48.98
2000-04-22,51.09
2000-04-23,49.44
2000-04-24,47.72
2000-04-25,49.38
2000-04-26,49.51
2000-04-27,52.44
2000-04-28,50.63
2000-04-29,48.53
2000-04-30,50.44
2000-05-01,52.72
2000-05-02,52.09
2000-05-03,53.44
2000-05-04,53.36
2000-05-05,52.61
2000-05-06,52.57
2000-05-07,51.16
2000-05-08,50.92
2000-05-09,52.29
2000-05-10,51.08
2000-05-11,48.86
2000-05-12,47.76
2000-05-13,49.08
2000-05-14,48.91
2000-05-15,50.17
2000-05-16,50.01
2000-05-17,50.42
2000-05-18,51.33
2000-05-19,53.65
2000-05-20,55.51
2000-05-21,57.15
2000-05-22,58.94
2000-05-23,59.06
2000-05-24,59.38
2000-05-25,59.31
2000-05-26,58.82
2000-05-27,59.75
2000-05-28,59.75
2000-05-29,58.94
2000-05-30,58.43
2000-05-31,56.29
2000-06-01,56.81
2000-06-02,58.3
2000-06-03,59.55
2000-06-04,61.09
2000-06-05,62.18
2000-06-06,62.28
2000-06-07,62.63
2000-06-08,62.07
2000-06-09,59.73
2000-06-10,59.66
2000-06-11,58.83
2000-06-12,59.43
2000-06-13,58.53
2000-06-14,61.55
2000-06-15,63.4
2000-06-16,63.84
2000-06-17,63.82
2000-06-18,64.79
2000-06-19,64.82
2000-06-20,65.07
2000-06-21,65.96
2000-06-22,66.98
2000-06-23,67.24
2000-06-24,67.45
2000-06-25,67.62
2000-06-26,67.92
2000-06-27,68.28
2000-06-28,68.55
2000-06-29,69.01
2000-06-30,69.44
2000-07-01,68.96
2000-07-02,67.95
2000-07-03,66.78
2000-07-04,65.68
2000-07-05,64.97
2000-07-06,62.41
2000-07-07,62.54
2000-07-08,62.65
2000-07-09,62.98
2000-07-10,64.06
2000-07-11,65.01
2000-07-12,66.23
2000-07-13,66.65
2000-07-14,66.68
2000-07-15,66.96
2000-07-16,67.01
2000-07-17,67.16
2000-07-18,67.36
2000-07-19,67.64
2000-07-20,67.96
2000-07-21,68.47
2000-07-22,68.58
2000-07-23,68.04
2000-07-24,67.9
2000-07-25,68.02
2000-07-26,67.66
2000-07-27,67.42
2000-07-28,67.5
2000-07-29,67.94
2000-07-30,68.43
2000-07-31,68.94
2000-08-01,68.99
2000-08-02,68.56
2000-08-03,68.44
2000-08-04,68.55
2000-08-05,68.06
2000-08-06,67.75
2000-08-07,67.43
2000-08-08,67.72
2000-08-09,67.56
2000-08-10,66.53
2000-08-11,65.47
2000-08-12,65.1
2000-08-13,65.0
2000-08-14,64.47
2000-08-15,64.28
2000-08-16,63.91
2000-08-17,63.81
2000-08-18,63.24
2000-08-19,62.88
2000-08-20,62.29
2000-08-21,62.15
2000-08-22,62.44
2000-08-23,62.3
2000-08-24,61.93
2000-08-25,61.74
2000-08-26,61.85
2000-08-27,61.84
2000-08-28,61.72
2000-08-29,61.74
2000-08-30,61.65
2000-08-31,61.51
2000-09-01,61.01
2000-09-02,59.45
2000-09-03,58.58
2000-09-04,57.63
2000-09-05,56.51
2000-09-06,55.81
2000-09-07,55.61
2000-09-08,56.06
2000-09-09,55.5
2000-09-10,55.19
2000-09-11,56.07
2000-09-12,57.12
2000-09-13,59.56
2000-09-14,59.6
2000-09-15,59.57
2000-09-16,59.51
2000-09-17,59.31
2000-09-18,59.58
2000-09-19,60.09
2000-09-20,60.63
2000-09-21,60.29
2000-09-22,59.42
2000-09-23,57.97
2000-09-24,56.84
2000-09-25,56.36
2000-09-26,56.12
2000-09-27,55.97
2000-09-28,56.28
2000-09-29,56.44
2000-09-30,56.55
2000-10-01,56.84
2000-10-02,56.36
2000-10-03,55.59
2000-10-04,54.99
2000-10-05,54.55
2000-10-06,54.3
2000-10-07,54.13
2000-10-08,54.17
2000-10-09,54.28
2000-10-10,53.74
2000-10-11,53.11
2000-10-12,52.44
2000-10-13,52.53
2000-10-14,52.21
2000-10-15,51.87
2000-10-16,51.43
2000-10-17,51.12
2000-10-18,51.04
2000-10-19,51.15
2000-10-20,51.18
2000-10-21,50.5
2000-10-22,49.49
2000-10-23,48.62
2000-10-24,48.18
2000-10-25,48.38
2000-10-26,48.49
2000-10-27,48.11
2000-10-28,48.22
2000-10-29,47.9
2000-10-30,47.52
2000-10-31,47.07
2000-11-01,46.66
2000-11-02,46.68
2000-11-03,47.24
2000-11-04,47.06
2000-11-05,46.66
2000-11-06,46.43
2000-11-07,45.66
2000-11-08,45.67
2000-11-09,45.21
2000-11-10,44.19
2000-11-11,43.32
2000-11-12,42.46
2000-11-13,41.73
2000-11-14,41.43
2000-11-15,41.41
2000-11-16,41.31
2000-11-17,40.92
2000-11-18,40.55
2000-11-19,40.14
2000-11-20,39.76
2000-11-21,39.52
2000-11-22,39.29
2000-11-23,39.03
2000-11-24,38.83
2000-11-25,38.73
2000-11-26,38.71
2000-11-27,38.73
2000-11-28,38.98
2000-11-29,39.23
2000-11-30,39.92
2000-12-01,39.79
2000-12-02,39.34
2000-12-03,38.97
2000-12-04,38.66
2000-12-05,38.35
2000-12-06,38.04
2000-12-07,37.81
2000-12-08,37.62
2000-12-09,37.52
2000-12-10,37.51
2000-12-11,37.56
2000-12-12,37.55
2000-12-13,37.55
2000-12-14,37.56
2000-12-15,37.47
2000-12-16,37.46
2000-12-17,37.47
2000-12-18,37.3
2000-12-19,37.06
2000-12-20,36.94
2000-12-21,36.92
2000-12-22,36.95
2000-12-23,37.11
2000-12-24,37.18
2000-12-25,36.97
2000-12-26,36.71
2000-12-27,36.5
2000-12-28,36.29
2000-12-29,36.11
2000-12-30,35.93
2000-12-31,35.77
2001-01-01,35.64
2001-01-02,35.54
2001-01-03,35.46
2001-01-04,35.41
2001-01-05,35.36
2001-01-06,35.33
2001-01-07,35.31
2001-01-08,35.28
2001-01-09,35.28
2001-01-10,35.27
2001-01-11,35.27
2001-01-12,35.26
2001-01-13,35.28
2001-01-14,35.28
2001-01-15,35.28
2001-01-16,35.2
2001-01-17,35.04
2001-01-18,34.9
2001-01-19,34.82
2001-01-20,34.78
2001-01-21,34.73
2001-01-22,34.71
2001-01-23,34.72
2001-01-24,34.73
2001-01-25,34.73
2001-01-26,34.76
2001-01-27,34.76
2001-01-28,34.75
2001-01-29,34.73
2001-01-30,34.69
2001-01-31,34.59
2001-02-01,34.48
2001-02-02,34.44
2001-02-03,34.43
2001-02-04,34.41
2001-02-05,34.42
2001-02-06,34.46
2001-02-07,34.49
2001-02-08,34.53
2001-02-09,34.54
2001-02-10,34.55
2001-02-11,34.55
2001-02-12,34.55
2001-02-13,34.53
2001-02-14,34.48
2001-02-15,34.42
2001-02-16,34.41
2001-02-17,34.4
2001-02-18,34.4
2001-02-19,34.41
2001-02-20,34.42
2001-02-21,34.47
2001-02-22,34.52
2001-02-23,34.64
2001-02-24,34.73
2001-02-25,34.78
2001-02-26,34.87
2001-02-27,35.08
2001-02-28,35.26
2001-03-01,35.37
2001-03-02,35.31
2001-03-03,35.33
2001-03-04,35.31
2001-03-05,35.32
2001-03-06,35.64
2001-03-07,36.21
2001-03-08,37.13
2001-03-09,37.97
2001-03-10,37.79
2001-03-11,38.05
2001-03-12,38.34
2001-03-13,38.86
2001-03-14,39.28
2001-03-15,39.27
2001-03-16,39.28
2001-03-17,39.47
2001-03-18,39.87
2001-03-19,40.98
2001-03-20,42.07
2001-03-21,42.68
2001-03-22,43.45
2001-03-23,44.0
2001-03-24,44.67
2001-03-25,44.59
2001-03-26,44.07
2001-03-27,43.48
2001-03-28,43.62
2001-03-29,43.96
2001-03-30,44.39
2001-03-31,44.75
2001-04-01,45.12
2001-04-02,44.93
2001-04-03,43.94
2001-04-04,43.13
2001-04-05,42.82
2001-04-06,43.31
2001-04-07,42.69
2001-04-08,41.94
2001-04-09,41.58
2001-04-10,41.61
2001-04-11,41.99
2001-04-12,41.66
2001-04-13,41.84
2001-04-14,41.87
2001-04-15,42.34
2001-04-16,42.83
2001-04-17,43.24
2001-04-18,44.04
2001-04-19,43.83
2001-04-20,43.97
2001-04-21,43.61
2001-04-22,43.99
2001-04-23,44.81
2001-04-24,46.1
2001-04-25,47.22
2001-04-26,48.65
2001-04-27,49.61
2001-04-28,49.64
2001-04-29,48.7
2001-04-30,48.88
2001-05-01,48.93
2001-05-02,48.16
2001-05-03,47.72
2001-05-04,48.24
2001-05-05,49.11
2001-05-06,49.24
2001-05-07,49.67
2001-05-08,50.56
2001-05-09,51.24
2001-05-10,51.45
2001-05-11,51.79
2001-05-12,52.59
2001-05-13,52.38
2001-05-14,52.64
2001-05-15,52.32
2001-05-16,52.07
2001-05-17,51.84
2001-05-18,52.08
2001-05-19,52.86
2001-05-20,53.33
2001-05-21,53.77
2001-05-22,54.31
2001-05-23,55.32
2001-05-24,56.14
2001-05-25,56.57
2001-05-26,57.2
2001-05-27,57.33
2001-05-28,56.17
2001-05-29,55.28
2001-05-30,55.31
2001-05-31,55.68
2001-06-01,56.59
2001-06-02,55.72
2001-06-03,54.41
2001-06-04,53.39
2001-06-05,54.16
2001-06-06,53.86
2001-06-07,54.65
2001-06-08,55.56
2001-06-09,55.73
2001-06-10,55.73
2001-06-11,55.2
2001-06-12,54.81
2001-06-13,53.97
2001-06-14,54.34
2001-06-15,54.7
2001-06-16,55.04
2001-06-17,55.19
2001-06-18,54.51
2001-06-19,54.99
2001-06-20,55.71
2001-06-21,56.64
2001-06-22,56.98
2001-06-23,57.35
2001-06-24,56.74
2001-06-25,55.7
2001-06-26,55.89
2001-06-27,55.85
2001-06-28,55.39
2001-06-29,55.75
2001-06-30,56.99
2001-07-01,57.42
2001-07-02,57.68
2001-07-03,58.51
2001-07-04,58.8
2001-07-05,60.17
2001-07-06,60.13
2001-07-07,59.82
2001-07-08,59.39
2001-07-09,59.7
2001-07-10,60.28
2001-07-11,59.88
2001-07-12,58.76
2001-07-13,58.94
2001-07-14,59.31
2001-07-15,59.52
2001-07-16,59.99
2001-07-17,59.12
2001-07-18,58.71
2001-07-19,58.54
2001-07-20,58.86
2001-07-21,59.19
2001-07-22,58.42
2001-07-23,58.96
2001-07-24,59.64
2001-07-25,60.18
2001-07-26,60.09
2001-07-27,60.03
2001-07-28,59.9
2001-07-29,59.58
2001-07-30,59.63
2001-07-31,58.54
2001-08-01,58.64
2001-08-02,59.37
2001-08-03,59.45
2001-08-04,60.14
2001-08-05,59.82
2001-08-06,60.1
2001-08-07,60.56
2001-08-08,61.36
2001-08-09,61.99
2001-08-10,61.82
2001-08-11,61.79
2001-08-12,61.53
2001-08-13,61.08
2001-08-14,60.8
2001-08-15,61.19
2001-08-16,61.71
2001-08-17,61.72
2001-08-18,61.43
2001-08-19,60.58
2001-08-20,61.35
2001-08-21,64.2
2001-08-22,65.58
2001-08-23,66.22
2001-08-24,64.82
2001-08-25,66.3
2001-08-26,65.94
2001-08-27,65.81
2001-08-28,65.22
2001-08-29,64.98
2001-08-30,65.28
2001-08-31,65.05
2001-09-01,64.86
2001-09-02,64.57
2001-09-03,64.33
2001-09-04,63.86
2001-09-05,63.33
2001-09-06,61.69
2001-09-07,60.9
2001-09-08,60.67
2001-09-09,60.15
2001-09-10,60.08
2001-09-11,59.87
2001-09-12,59.8
2001-09-13,60.36
2001-09-14,60.0
2001-09-15,60.34
2001-09-16,60.15
2001-09-17,59.53
2001-09-18,59.24
2001-09-19,58.62
2001-09-20,57.98
2001-09-21,57.48
2001-09-22,57.11
2001-09-23,57.24
2001-09-24,57.33
2001-09-25,57.82
2001-09-26,57.3
2001-09-27,56.8
2001-09-28,56.02
2001-09-29,55.1
2001-09-30,54.74
2001-10-01,54.81
2001-10-02,54.98
2001-10-03,54.81
2001-10-04,54.63
2001-10-05,54.57
2001-10-06,54.33
2001-10-07,53.78
2001-10-08,53.7
2001-10-09,52.52
2001-10-10,51.54
2001-10-11,51.82
2001-10-12,51.6
2001-10-13,51.26
2001-10-14,51.15
2001-10-15,51.05
2001-10-16,51.45
2001-10-17,51.86
2001-10-18,50.7
2001-10-19,49.9
2001-10-20,49.88
2001-10-21,49.72
2001-10-22,50.0
2001-10-23,50.53
2001-10-24,49.0
2001-10-25,47.94
2001-10-26,47.46
2001-10-27,47.57
2001-10-28,48.05
2001-10-29,48.54
2001-10-30,49.05
2001-10-31,49.31
2001-11-01,
2001-11-02,
2001-11-03,
2001-11-04,
2001-11-05,
2001-11-06,
2001-11-07,
2001-11-08,
2001-11-09,
2001-11-10,
2001-11-11,
2001-11-12,
2001-11-13,
2001-11-14,
2001-11-15,
2001-11-16,
2001-11-17,
2001-11-18,
2001-11-19,
2001-11-20,
2001-11-21,
2001-11-22,
2001-11-23,
2001-11-24,
2001-11-25,
2001-11-26,
2001-11-27,
2001-11-28,
2001-11-29,
2001-11-30,
2001-12-01,
2001-12-02,
2001-12-03,
2001-12-04,
2001-12-05,
2001-12-06,
2001-12-07,
2001-12-08,
2001-12-09,
2001-12-10,
2001-12-11,
2001-12-12,39.79
2001-12-13,39.72
2001-12-14,39.63
2001-12-15,39.52
2001-12-16,39.47
2001-12-17,39.32
2001-12-18,39.24
2001-12-19,39.19
2001-12-20,39.09
2001-12-21,39.05
2001-12-22,39.02
2001-12-23,39.02
2001-12-24,38.99
2001-12-25,38.89
2001-12-26,38.79
2001-12-27,38.72
2001-12-28,38.62
2001-12-29,38.46
2001-12-30,38.21
2001-12-31,37.9
2002-01-01,37.6
2002-01-02,36.79
2002-01-03,36.77
2002-01-04,36.94
2002-01-05,37.5
2002-01-06,37.1
2002-01-07,37.57
2002-01-08,38.5
2002-01-09,38.88
2002-01-10,39.52
2002-01-11,39.77
2002-01-12,39.93
2002-01-13,39.96
2002-01-14,39.49
2002-01-15,38.96
2002-01-16,39.0
2002-01-17,39.33
2002-01-18,39.79
2002-01-19,40.06
2002-01-20,40.18
2002-01-21,40.31
2002-01-22,40.42
2002-01-23,40.5
2002-01-24,40.43
2002-01-25,40.36
2002-01-26,40.25
2002-01-27,40.09
2002-01-28,39.98
2002-01-29,39.9
2002-01-30,39.78
2002-01-31,39.57
2002-02-01,39.27
2002-02-02,38.92
2002-02-03,38.57
2002-02-04,38.32
2002-02-05,38.11
2002-02-06,37.93
2002-02-07,37.91
2002-02-08,37.95
2002-02-09,38.13
2002-02-10,38.52
2002-02-11,39.07
2002-02-12,39.59
2002-02-13,39.99
2002-02-14,40.33
2002-02-15,39.07
2002-02-16,37.72
2002-02-17,37.36
2002-02-18,37.05
2002-02-19,36.9
2002-02-20,36.99
2002-02-21,38.46
2002-02-22,40.09
2002-02-23,40.5
2002-02-24,40.42
2002-02-25,40.31
2002-02-26,40.14
2002-02-27,40.38
2002-02-28,40.4
2002-03-01,39.56
2002-03-02,39.04
2002-03-03,38.81
2002-03-04,38.89
2002-03-05,39.07
2002-03-06,38.98
2002-03-07,39.13
2002-03-08,38.53
2002-03-09,38.13
2002-03-10,37.91
2002-03-11,38.24
2002-03-12,39.17
2002-03-13,39.44
2002-03-14,38.95
2002-03-15,38.66
2002-03-16,38.22
2002-03-17,37.88
2002-03-18,37.57
2002-03-19,37.43
2002-03-20,38.17
2002-03-21,39.0
2002-03-22,39.75
2002-03-23,40.25
2002-03-24,40.59
2002-03-25,40.65
2002-03-26,40.71
2002-03-27,41.0
2002-03-28,41.37
2002-03-29,42.09
2002-03-30,42.65
2002-03-31,43.0
2002-04-01,43.51
2002-04-02,44.17
2002-04-03,45.06
2002-04-04,46.01
2002-04-05,46.84
2002-04-06,46.83
2002-04-07,46.48
2002-04-08,46.47
2002-04-09,47.02
2002-04-10,46.98
2002-04-11,47.51
2002-04-12,47.51
2002-04-13,48.01
2002-04-14,48.69
2002-04-15,48.13
2002-04-16,46.64
2002-04-17,45.55
2002-04-18,44.8
2002-04-19,44.63
2002-04-20,44.97
2002-04-21,45.59
2002-04-22,46.15
2002-04-23,46.94
2002-04-24,46.97
2002-04-25,47.66
2002-04-26,48.1
2002-04-27,47.61
2002-04-28,47.15
2002-04-29,47.34
2002-04-30,45.96
2002-05-01,45.31
2002-05-02,46.39
2002-05-03,46.6
2002-05-04,47.6
2002-05-05,48.3
2002-05-06,48.52
2002-05-07,48.13
2002-05-08,47.53
2002-05-09,48.2
2002-05-10,48.51
2002-05-11,47.59
2002-05-12,48.74
2002-05-13,50.28
2002-05-14,49.75
2002-05-15,50.69
2002-05-16,50.15
2002-05-17,51.55
2002-05-18,52.85
2002-05-19,51.87
2002-05-20,50.11
2002-05-21,50.02
2002-05-22,49.65
2002-05-23,49.59
2002-05-24,50.89
2002-05-25,52.42
2002-05-26,52.96
2002-05-27,53.94
2002-05-28,53.54
2002-05-29,54.86
2002-05-30,55.75
2002-05-31,55.72
2002-06-01,56.58
2002-06-02,55.44
2002-06-03,55.46
2002-06-04,55.82
2002-06-05,56.5
2002-06-06,56.67
2002-06-07,56.17
2002-06-08,54.57
2002-06-09,53.19
2002-06-10,52.65
2002-06-11,53.62
2002-06-12,55.07
2002-06-13,55.86
2002-06-14,56.68
2002-06-15,57.11
2002-06-16,57.43
2002-06-17,57.3
2002-06-18,57.2
2002-06-19,56.48
2002-06-20,65.41
2002-06-21,66.51
2002-06-22,67.79
2002-06-23,70.1
2002-06-24,67.75
2002-06-25,66.99
2002-06-26,67.05
2002-06-27,67.26
2002-06-28,66.84
2002-06-29,65.87
2002-06-30,65.04
2002-07-01,64.43
2002-07-02,64.16
2002-07-03,64.4
2002-07-04,63.64
2002-07-05,63.04
2002-07-06,63.45
2002-07-07,63.85
2002-07-08,62.91
2002-07-09,62.65
2002-07-10,63.5
2002-07-11,64.41
2002-07-12,65.41
2002-07-13,65.6
2002-07-14,65.62
2002-07-15,65.2
2002-07-16,64.66
2002-07-17,63.85
2002-07-18,63.74
2002-07-19,64.11
2002-07-20,63.71
2002-07-21,63.8
2002-07-22,64.44
2002-07-23,63.14
2002-07-24,62.51
2002-07-25,62.51
2002-07-26,62.14
2002-07-27,62.27
2002-07-28,62.02
2002-07-29,62.47
2002-07-30,62.57
2002-07-31,62.27
2002-08-01,62.02
2002-08-02,61.58
2002-08-03,61.01
2002-08-04,60.59
2002-08-05,58.6
2002-08-06,58.17
2002-08-07,58.02
2002-08-08,58.04
2002-08-09,59.06
2002-08-10,59.4
2002-08-11,59.97
2002-08-12,60.27
2002-08-13,61.19
2002-08-14,61.34
2002-08-15,61.28
2002-08-16,61.19
2002-08-17,62.48
2002-08-18,67.44
2002-08-19,67.68
2002-08-20,67.35
2002-08-21,66.45
2002-08-22,66.34
2002-08-23,65.42
2002-08-24,65.23
2002-08-25,65.28
2002-08-26,64.46
2002-08-27,64.21
2002-08-28,64.69
2002-08-29,64.76
2002-08-30,64.84
2002-08-31,63.58
2002-09-01,62.91
2002-09-02,63.04
2002-09-03,63.11
2002-09-04,62.41
2002-09-05,61.03
2002-09-06,59.65
2002-09-07,58.9
2002-09-08,57.97
2002-09-09,57.56
2002-09-10,57.65
2002-09-11,57.97
2002-09-12,58.32
2002-09-13,58.66
2002-09-14,58.53
2002-09-15,58.57
2002-09-16,58.35
2002-09-17,58.62
2002-09-18,57.88
2002-09-19,57.42
2002-09-20,57.38
2002-09-21,57.49
2002-09-22,57.2
2002-09-23,57.0
2002-09-24,57.02
2002-09-25,57.04
2002-09-26,56.04
2002-09-27,55.91
2002-09-28,55.58
2002-09-29,55.11
2002-09-30,53.93
2002-10-01,52.62
2002-10-02,52.07
2002-10-03,51.88
2002-10-04,51.98
2002-10-05,52.32
2002-10-06,52.91
2002-10-07,52.77
2002-10-08,52.58
2002-10-09,51.9
2002-10-10,51.44
2002-10-11,50.4
2002-10-12,49.23
2002-10-13,48.75
2002-10-14,48.54
2002-10-15,48.99
2002-10-16,48.95
2002-10-17,48.84
2002-10-18,48.84
2002-10-19,48.76
2002-10-20,48.92
2002-10-21,49.11
2002-10-22,49.09
2002-10-23,48.38
2002-10-24,47.8
2002-10-25,47.33
2002-10-26,46.84
2002-10-27,46.33
2002-10-28,46.19
2002-10-29,45.86
2002-10-30,45.3
2002-10-31,43.82
2002-11-01,42.63
2002-11-02,41.69
2002-11-03,41.13
2002-11-04,40.85
2002-11-05,40.73
2002-11-06,40.92
2002-11-07,41.69
2002-11-08,43.28
2002-11-09,43.7
2002-11-10,43.27
2002-11-11,43.61
2002-11-12,44.1
2002-11-13,44.15
2002-11-14,43.53
2002-11-15,42.75
2002-11-16,42.32
2002-11-17,42.83
2002-11-18,42.28
2002-11-19,42.3
2002-11-20,42.59
2002-11-21,42.61
2002-11-22,42.29
2002-11-23,41.95
2002-11-24,42.12
2002-11-25,41.83
2002-11-26,40.96
2002-11-27,40.32
2002-11-28,39.88
2002-11-29,39.55
2002-11-30,39.27
2002-12-01,39.03
2002-12-02,38.77
2002-12-03,38.52
2002-12-04,38.34
2002-12-05,38.21
2002-12-06,38.11
2002-12-07,37.99
2002-12-08,37.81
2002-12-09,37.69
2002-12-10,37.65
2002-12-11,37.64
2002-12-12,37.65
2002-12-13,37.67
2002-12-14,37.81
2002-12-15,38.78
2002-12-16,39.22
2002-12-17,39.05
2002-12-18,38.75
2002-12-19,38.56
2002-12-20,38.43
2002-12-21,38.36
2002-12-22,38.29
2002-12-23,38.19
2002-12-24,38.01
2002-12-25,37.88
2002-12-26,37.78
2002-12-27,37.46
2002-12-28,37.25
2002-12-29,37.5
2002-12-30,37.65
2002-12-31,37.8
2003-01-01,37.9
2003-01-02,37.85
2003-01-03,38.07
2003-01-04,38.52
2003-01-05,39.31
2003-01-06,38.78
2003-01-07,38.36
2003-01-08,38.06
2003-01-09,37.88
2003-01-10,37.7
2003-01-11,37.59
2003-01-12,37.53
2003-01-13,37.58
2003-01-14,38.42
2003-01-15,39.33
2003-01-16,39.24
2003-01-17,39.32
2003-01-18,39.03
2003-01-19,38.72
2003-01-20,38.48
2003-01-21,38.35
2003-01-22,38.6
2003-01-23,39.51
2003-01-24,39.43
2003-01-25,39.67
2003-01-26,40.83
2003-01-27,41.73
2003-01-28,41.37
2003-01-29,40.89
2003-01-30,41.13
2003-01-31,41.97
2003-02-01,42.3
2003-02-02,41.51
2003-02-03,40.71
2003-02-04,40.08
2003-02-05,37.99
2003-02-06,37.98
2003-02-07,39.01
2003-02-08,39.16
2003-02-09,39.85
2003-02-10,40.44
2003-02-11,40.79
2003-02-12,41.02
2003-02-13,41.22
2003-02-14,42.15
2003-02-15,42.84
2003-02-16,42.75
2003-02-17,42.35
2003-02-18,42.27
2003-02-19,42.38
2003-02-20,42.48
2003-02-21,42.48
2003-02-22,42.79
2003-02-23,43.06
2003-02-24,42.48
2003-02-25,41.83
2003-02-26,41.8
2003-02-27,41.82
2003-02-28,41.69
2003-03-01,41.49
2003-03-02,41.51
2003-03-03,42.1
2003-03-04,42.74
2003-03-05,42.66
2003-03-06,42.75
2003-03-07,43.05
2003-03-08,43.17
2003-03-09,43.49
2003-03-10,44.21
2003-03-11,44.57
2003-03-12,45.55
2003-03-13,47.05
2003-03-14,45.9
2003-03-15,45.78
2003-03-16,45.4
2003-03-17,44.86
2003-03-18,43.71
2003-03-19,44.03
2003-03-20,43.93
2003-03-21,44.33
2003-03-22,45.21
2003-03-23,44.59
2003-03-24,43.94
2003-03-25,44.35
2003-03-26,44.65
2003-03-27,43.9
2003-03-28,43.99
2003-03-29,44.24
2003-03-30,44.77
2003-03-31,45.98
2003-04-01,46.2
2003-04-02,45.45
2003-04-03,44.08
2003-04-04,43.41
2003-04-05,42.88
2003-04-06,42.79
2003-04-07,43.21
2003-04-08,44.69
2003-04-09,45.22
2003-04-10,45.54
2003-04-11,45.75
2003-04-12,46.52
2003-04-13,45.46
2003-04-14,45.01
2003-04-15,44.69
2003-04-16,44.27
2003-04-17,44.13
2003-04-18,44.29
2003-04-19,44.53
2003-04-20,45.51
2003-04-21,45.99
2003-04-22,45.75
2003-04-23,45.88
2003-04-24,45.05
2003-04-25,43.98
2003-04-26,43.75
2003-04-27,43.92
2003-04-28,44.62
2003-04-29,44.97
2003-04-30,44.2
2003-05-01,45.32
2003-05-02,46.73
2003-05-03,47.21
2003-05-04,47.04
2003-05-05,46.81
2003-05-06,47.41
2003-05-07,47.63
2003-05-08,47.91
2003-05-09,46.96
2003-05-10,47.04
2003-05-11,47.38
2003-05-12,47.93
2003-05-13,49.18
2003-05-14,50.7
2003-05-15,51.37
2003-05-16,50.61
2003-05-17,50.39
2003-05-18,49.43
2003-05-19,49.12
2003-05-20,49.78
2003-05-21,50.87
2003-05-22,52.11
2003-05-23,52.96
2003-05-24,54.08
2003-05-25,54.25
2003-05-26,54.06
2003-05-27,54.24
2003-05-28,54.81
2003-05-29,55.66
2003-05-30,56.35
2003-05-31,56.5
2003-06-01,55.69
2003-06-02,55.4
2003-06-03,55.77
2003-06-04,56.15
2003-06-05,56.08
2003-06-06,56.26
2003-06-07,56.75
2003-06-08,56.97
2003-06-09,56.59
2003-06-10,55.95
2003-06-11,55.48
2003-06-12,55.39
2003-06-13,55.64
2003-06-14,60.45
2003-06-15,62.72
2003-06-16,64.13
2003-06-17,65.6
2003-06-18,67.19
2003-06-19,67.58
2003-06-20,65.53
2003-06-21,63.75
2003-06-22,62.18
2003-06-23,61.02
2003-06-24,60.29
2003-06-25,60.33
2003-06-26,60.53
2003-06-27,61.02
2003-06-28,61.44
2003-06-29,61.76
2003-06-30,61.1
2003-07-01,60.48
2003-07-02,59.9
2003-07-03,59.52
2003-07-04,59.4
2003-07-05,59.48
2003-07-06,59.36
2003-07-07,59.43
2003-07-08,59.03
2003-07-09,58.59
2003-07-10,58.75
2003-07-11,59.02
2003-07-12,59.23
2003-07-13,58.94
2003-07-14,58.5
2003-07-15,58.72
2003-07-16,59.02
2003-07-17,58.99
2003-07-18,59.11
2003-07-19,59.4
2003-07-20,59.79
2003-07-21,60.04
2003-07-22,60.66
2003-07-23,61.33
2003-07-24,61.82
2003-07-25,61.62
2003-07-26,61.04
2003-07-27,60.49
2003-07-28,60.29
2003-07-29,60.27
2003-07-30,60.47
2003-07-31,60.59
2003-08-01,60.65
2003-08-02,60.85
2003-08-03,60.63
2003-08-04,59.71
2003-08-05,59.19
2003-08-06,58.13
2003-08-07,57.57
2003-08-08,56.82
2003-08-09,56.61
2003-08-10,56.41
2003-08-11,56.19
2003-08-12,55.74
2003-08-13,55.46
2003-08-14,55.14
2003-08-15,55.6
2003-08-16,55.39
2003-08-17,55.28
2003-08-18,55.72
2003-08-19,56.53
2003-08-20,57.01
2003-08-21,57.07
2003-08-22,57.15
2003-08-23,56.83
2003-08-24,56.37
2003-08-25,56.13
2003-08-26,56.11
2003-08-27,56.44
2003-08-28,62.83
2003-08-29,65.46
2003-08-30,65.7
2003-08-31,63.88
2003-09-01,63.3
2003-09-02,62.59
2003-09-03,62.11
2003-09-04,61.7
2003-09-05,61.87
2003-09-06,61.03
2003-09-07,60.15
2003-09-08,59.08
2003-09-09,58.58
2003-09-10,57.79
2003-09-11,57.51
2003-09-12,57.7
2003-09-13,56.95
2003-09-14,56.12
2003-09-15,55.96
2003-09-16,55.88
2003-09-17,54.67
2003-09-18,53.67
2003-09-19,53.44
2003-09-20,53.47
2003-09-21,53.59
2003-09-22,53.86
2003-09-23,53.86
2003-09-24,53.84
2003-09-25,53.76
2003-09-26,53.49
2003-09-27,53.92
2003-09-28,54.61
2003-09-29,54.46
2003-09-30,53.82
2003-10-01,53.74
2003-10-02,53.74
2003-10-03,53.96
2003-10-04,53.91
2003-10-05,53.82
2003-10-06,53.63
2003-10-07,53.8
2003-10-08,53.17
2003-10-09,52.82
2003-10-10,51.54
2003-10-11,50.21
2003-10-12,50.24
2003-10-13,49.26
2003-10-14,49.01
2003-10-15,48.6
2003-10-16,48.72
2003-10-17,48.87
2003-10-18,49.07
2003-10-19,49.44
2003-10-20,50.37
2003-10-21,50.22
2003-10-22,50.49
2003-10-23,50.52
2003-10-24,49.09
2003-10-25,48.81
2003-10-26,48.44
2003-10-27,48.2
2003-10-28,48.47
2003-10-29,49.01
2003-10-30,47.85
2003-10-31,46.56
2003-11-01,45.35
2003-11-02,44.68
2003-11-03,44.73
2003-11-04,44.91
2003-11-05,44.94
2003-11-06,44.62
2003-11-07,44.41
2003-11-08,44.77
2003-11-09,45.37
2003-11-10,45.27
2003-11-11,45.16
2003-11-12,44.53
2003-11-13,43.86
2003-11-14,43.52
2003-11-15,43.58
2003-11-16,43.9
2003-11-17,44.2
2003-11-18,43.83
2003-11-19,43.52
2003-11-20,43.55
2003-11-21,42.86
2003-11-22,42.21
2003-11-23,41.46
2003-11-24,40.9
2003-11-25,40.47
2003-11-26,40.18
2003-11-27,39.97
2003-11-28,39.78
2003-11-29,39.28
2003-11-30,39.28
2003-12-01,39.98
2003-12-02,41.08
2003-12-03,41.18
2003-12-04,41.2
2003-12-05,41.25
2003-12-06,42.06
2003-12-07,42.52
2003-12-08,41.86
2003-12-09,41.37
2003-12-10,41.3
2003-12-11,41.51
2003-12-12,40.79
2003-12-13,40.62
2003-12-14,41.02
2003-12-15,41.21
2003-12-16,40.86
2003-12-17,40.67
2003-12-18,40.41
2003-12-19,40.14
2003-12-20,40.04
2003-12-21,40.07
2003-12-22,40.31
2003-12-23,40.36
2003-12-24,40.78
2003-12-25,40.62
2003-12-26,40.05
2003-12-27,39.57
2003-12-28,39.41
2003-12-29,39.24
2003-12-30,39.22
2003-12-31,39.29
2004-01-01,39.37
2004-01-02,39.37
2004-01-03,39.49
2004-01-04,39.6
2004-01-05,39.67
2004-01-06,39.8
2004-01-07,39.85
2004-01-08,37.7
2004-01-09,37.38
2004-01-10,37.8
2004-01-11,38.86
2004-01-12,39.03
2004-01-13,39.01
2004-01-14,39.11
2004-01-15,38.91
2004-01-16,38.87
2004-01-17,38.9
2004-01-18,38.86
2004-01-19,38.71
2004-01-20,38.71
2004-01-21,38.72
2004-01-22,38.72
2004-01-23,38.61
2004-01-24,38.31
2004-01-25,38.3
2004-01-26,38.32
2004-01-27,38.29
2004-01-28,38.26
2004-01-29,38.04
2004-01-30,38.05
2004-01-31,38.11
2004-02-01,38.17
2004-02-02,38.27
2004-02-03,38.51
2004-02-04,38.75
2004-02-05,38.72
2004-02-06,38.61
2004-02-07,38.7
2004-02-08,38.52
2004-02-09,38.37
2004-02-10,38.26
2004-02-11,38.14
2004-02-12,38.07
2004-02-13,38.0
2004-02-14,37.96
2004-02-15,37.98
2004-02-16,38.17
2004-02-17,38.32
2004-02-18,38.64
2004-02-19,39.37
2004-02-20,39.34
2004-02-21,39.41
2004-02-22,39.59
2004-02-23,39.96
2004-02-24,40.29
2004-02-25,40.57
2004-02-26,39.4
2004-02-27,39.41
2004-02-28,39.97
2004-02-29,40.31
2004-03-01,41.01
2004-03-02,41.35
2004-03-03,41.35
2004-03-04,41.35
2004-03-05,41.53
2004-03-06,41.89
2004-03-07,41.9
2004-03-08,41.95
2004-03-09,43.02
2004-03-10,45.12
2004-03-11,46.58
2004-03-12,46.96
2004-03-13,47.59
2004-03-14,48.37
2004-03-15,49.17
2004-03-16,49.83